STARLINK-5747, 55574

Orbit data source: Space-Track

STARLINK-5747, 55574 is a payload satellite owned by SpaceX/Seattle (US) in LEO that was launched on Sun, 12 Feb 2023 UTC via an FALCON 9 launch vehicle from the Air Force Eastern Test Range (AFETR). Payload-class satellites include a variety of spacecraft equipped with specific instruments for various scientific and technological missions. These include communications satellites like Starlink; space stations such as the ISS; scientific satellites like the Hubble; Earth observation satellites from companies like Planet Labs, Umbra, and HawkEye 360; GPS; miniature CubeSats for education and research; and military/defense satellites.

Loading next visibility...
Identifier
55574, 2023-020F
Orbit
LEO
Country
Flag of USUS
Related business
Manufacturer
SpaceX/Seattle
Mission
Operational Commercial Communications
Bus & Motor
STARLINK, Unknown motor
Mass
305 kg wet, ~290 kg dry
Launch date (UTC)
2023-02-12 (4 years ago)
Launch vehicle
FALCON 9
Launch site
Air Force Eastern Test Range (AFETR)
Object type
Payload
Rocket body
Debris
Shape & HBR
Box + 1 Pan, 10.1 m
Radar Cross Section
13.562 m², Large (>1 m²)

Expand to show TLE details & history
Last TLE update: 6 hours ago

TLE from 6 hours ago
0 STARLINK-5747
1 55574U 23020F   26264.29344542  .00000827  00000-0  39577-4 0  9998
2 55574  43.0043 344.3040 0001642 268.5744  91.4919 15.27579474198786
Epoch: 2026-09-21T07:02Z
TLE epoch observation values (Epoch: 2026-09-21T07:02:33.684Z)
Latitude
-0.00005°
Longitude
-121.51176°
Altitude
482.856 km
Speed
7.626 km/s
True Right ascension
22h 57m 12s
True Declination
0° 00' 00"
Sunlit
Object was in full shadow at epoch
Visualization orbit readout
Latitude
Unknown
Longitude
Unknown
Altitude
Unknown
Speed
Unknown
Apparent Right ascension
Unknown
Apparent Declination
Unknown
Sunlit
N/A
Visualization observer readout
Local Sidereal Time
06:01:08
Azimuth
Unknown
Elevation
Unknown
Doppler factor
Unknown
Orbital elements
Apogee altitude
486.122 km
Perigee altitude
483.868 km
Semi-major axis
6,863.132 km
Eccentricity
0.00016
Inclination
43.0043°
RAAN
344.304°
Arg. of periapsis
268.5744°
True anomaly
91.51071°
Mean anomaly
91.4919°
Eccentric anomaly
91.5013°
Mean motion
3.81733 °/min
Orbital period
94.31 mins
BSTAR
0.000039577
Loading maneuver chart data...
Computing Atmospheric mass density...
Loading historical data...
Loading historical data...
Loading historical data...
Loading historical data...
Loading historical data...
Loading historical data...
Loading historical data...

Documentation

Showing up to 5 results
|